CAPE
1791 1784 2242 2272 2514 2698 2834 2932 3103 3118 3310 3088 3307 3694 3657 3491 3841 3872 3890 4032 3749 3238 3752 3277 3316 2742 2378 1846 1678 2260 2362 2472 2737 2649 2346 2522 2592 2696 3017 3170 3402 3665 3775 3868 3941 3965 4019 3953 4056 4079 4122 4156 4090 4124 4184 4302 4340 4258 4216 4242 4069 4195 4253 4321 4393 4426 4414 4430 4464 4442 4456 4446 4406 4346 4276 4199 4195 4074 3960 3797 3614 3499 3286 3238 3126
1850 2133 2285 2448 2844 2969 3148 3057 3152 3343 3333 3236 3564 3744 3980 3987 4032 4028 3639 3851 3723 4090 4307 2951 1981 1926 2371 1774 1478 1267 2307 2381 2701 2614 2528 2539 2766 2456 3107 3276 3435 3787 3922 3964 4000 4044 4006 4146 4152 4199 4232 4342 4519 4452 4409 4443 4491 4596 4731 4909 5003 5133 5109 5137 5108 4895 4722 4615 4582 4646 4551 4449 4415 4336 4347 4255 4256 4192 4019 3938 3842 3355 3129 3127 3009
2137 2380 2583 2897 3018 3132 2955 3216 3329 3537 3908 3267 3626 4112 4127 4021 3626 3702 3908 4179 4313 4273 4217 3405 2587 2337 2166 1608 1353 1584 1795 2290 2159 2193 1980 2419 2308 2200 2406 2833 3072 3404 3879 4360 4568 4520 4407 4478 4377 4482 4648 4684 4631 4510 4495 4585 4698 4883 5031 5166 5288 5334 5362 5312 5275 5252 5160 5126 5133 5075 4907 4685 4553 4429 4406 4318 4288 4219 4182 4182 4219 4019 3487 3156 3095
2983 2903 2835 3037 2898 2857 2957 3209 3556 3939 4042 3728 3674 3900 3783 3574 3953 4626 4675 4825 4474 4075 3959 3381 2588 1989 2230 1620 1581 1485 1800 2000 1830 1982 2132 2277 2460 2325 2090 2106 2712 2564 2912 3552 4350 4859 4961 4868 4897 5080 5179 5321 5296 5351 5321 5156 5078 5107 5138 5254 5339 5388 5364 5370 5303 5214 5200 5203 5277 5289 5125 4898 4756 4704 4586 4484 4384 4228 4183 4173 4181 4176 4144 3754 3294
3373 3204 3032 2954 2969 3170 2784 3248 3674 3986 3952 3730 3832 3984 3550 3517 3714 4296 4846 4520 3635 3324 3271 2674 2280 2811 2180 1523 1481 1553 1758 2020 2106 1998 1969 2092 2315 2172 2228 2187 2317 2704 2976 2922 3376 4017 4775 5121 5262 5348 5390 5410 5438 5463 5327 5452 5201 5293 5344 5426 5379 5376 5312 5345 5375 5239 5278 5289 5377 5364 5251 5059 4918 4845 4862 4908 4745 4648 4508 4385 4261 4204 4151 4092 3457
3438 3600 3238 2842 2819 2961 3195 3261 3780 4080 3615 3925 3652 3529 3422 3703 3832 4031 4351 3865 3107 3164 2665 1768 1984 2241 1803 1538 1613 1740 1758 1589 1800 1958 2172 2084 2319 2374 2446 2680 2884 2626 2704 3033 3200 3458 3770 4040 4471 4832 5131 5281 5448 5512 5436 5587 5340 5199 5292 5291 5293 5359 5328 5373 5556 5534 5468 5458 5454 5407 5187 4931 5132 5038 5013 4916 4602 4802 4858 4700 4558 4223 4159 3973 3442
3739 3731 3114 3101 2572 2830 3160 3188 3864 3956 3772 3994 3972 3550 3586 3867 4213 3921 3863 3591 3301 2829 2549 1799 1542 1304 1854 1931 1584 1556 1776 1622 2044 2026 2106 2427 2800 2278 2617 2663 2750 2908 2913 2841 3213 3358 3062 3362 3665 4106 4575 5102 5685 5801 5728 5398 5233 5166 5351 5471 5548 5478 5436 5292 5589 5450 5347 5285 5388 5162 5228 5088 4872 4887 5081 5141 5059 4902 4839 4749 4633 4476 4345 3822 3532
3820 3853 3312 3002 2720 3032 3047 3853 4346 4091 4034 3960 4013 3651 4228 4170 4161 4171 4252 3099 3417 2359 2479 2550 1644 1486 2073 2241 2088 1968 2062 1997 1921 1750 1774 2221 2300 2614 2839 3044 3084 3147 3377 3306 3520 3484 3221 3431 3877 4051 4430 4676 5239 5763 5999 5847 5621 5270 5188 5273 5428 5463 5500 5530 5372 5318 5316 5441 5608 5502 5496 5441 5234 5200 5362 5373 5266 4975 4845 4755 4698 4631 4274 3978 3917
4054 3858 3484 2935 2980 2957 2941 3632 4382 4203 4008 3562 3728 4026 4195 3395 4973 4496 4692 4612 3171 1899 2055 2107 1472 1685 2117 2146 2172 2670 2301 2602 2105 2031 2070 2385 2453 2147 2145 2551 3255 3548 4282 4159 4226 3756 3992 3345 3626 4071 4800 5180 5093 5105 5125 5418 5224 5292 5344 5192 5401 5381 5342 5176 5102 5053 5038 5321 5495 5714 5481 5546 5442 5205 5146 5055 5035 4955 4843 4739 4675 4643 4607 4320 3660
4214 4152 3861 3100 3198 3098 3406 4166 4436 4298 3953 3566 4075 4048 4426 4339 4519 4660 4214 4893 3174 2294 1656 1456 1270 1390 1675 1696 2549 2499 2817 3006 2861 2654 2824 2545 2611 2517 2237 2167 2230 2259 2612 2743 2500 3491 3583 3597 3607 3542 3727 4135 4484 4091 4519 4547 4602 4968 4919 5074 5276 5557 5765 5312 5186 5134 5340 5351 5337 5438 5524 5564 5562 5341 5240 5109 4963 4781 4634 4543 4493 4480 4435 4309 3755
4326 4210 3976 3452 3076 3218 3695 4342 4083 3888 4008 3303 3648 4414 4684 4473 4523 4354 4601 4206 3965 3321 2612 2331 1422 1426 1461 1722 2321 3280 2878 2516 2848 2583 2348 1969 1936 2154 2178 2690 2428 2449 2920 2954 2652 3495 4052 3889 3690 3553 3463 3632 3517 3770 4468 5116 5349 4628 5044 4757 5132 5295 5435 5242 5079 5174 5386 5581 5702 5626 5490 5383 5331 5251 5049 4871 4690 4497 4412 4369 4252 4042 3993 4059 3632
4254 4054 4078 3585 3135 3487 3847 4045 4093 3889 4084 3369 3948 4290 4638 4616 4686 4110 4282 3974 3812 3369 2655 2297 1693 1947 2165 2011 2295 2502 2772 3204 2752 2482 2545 2453 2235 2476 2013 1774 2158 2167 1928 1944 2332 1957 3081 4112 4529 3269 3038 3100 3182 3459 4070 3981 4500 4339 3979 4460 4545 5299 5234 5391 4918 4838 4942 5318 5656 5543 5275 5122 5268 5343 4934 4639 4431 4348 4323 4238 4004 3841 3762 3795 3384
4194 3990 3551 3807 3898 3815 3940 4159 4016 4063 4343 4188 4270 4385 4536 4722 4881 5180 4030 3870 3279 3178 2431 2154 2233 2003 2328 1706 2068 2516 2293 2958 2402 2066 1818 1726 1926 2332 2315 2109 1794 1997 2264 2122 2628 2004 2084 3218 3141 3369 3394 4325 3968 3563 3295 3398 3413 3447 3576 4020 4683 5408 5356 4873 4629 4586 4808 5119 5230 5027 4846 4609 4638 4685 4562 4456 4330 4332 4258 4078 3703 3588 3482 3579 3179
4319 4132 3919 3687 3426 3267 3759 4162 4067 4182 4407 4434 4320 4456 4608 4313 4592 4466 3998 3566 3460 3199 2607 2221 2039 1593 1747 1808 1944 1955 2403 1974 1481 1361 1504 1648 1895 2042 2138 1624 1246 1304 1699 2316 2418 2470 1723 1832 3142 2269 3527 3784 3369 3378 4317 3628 3296 3304 3224 4064 4443 4486 4886 5187 4781 4843 4921 5035 4860 4633 4534 4392 4533 4652 4574 4376 4285 4332 4130 3971 3314 3529 3073 3408 2786
4258 4242 4013 3571 3353 3685 3628 4029 4108 4137 4162 3870 4085 4265 4283 4171 4444 4192 3414 3163 3430 3201 4031 3324 1468 1999 2462 2300 2027 2049 2092 1842 1451 1626 1256 1611 1641 1338 1496 1192 1151 1354 1796 1609 1660 1955 1756 1895 2559 3204 3596 3897 3356 3471 3812 3355 3430 3900 3640 3331 3243 3956 4352 4794 4956 4898 4866 4721 4331 4211 4276 4381 4433 4538 4447 4359 4449 4229 3896 3700 3245 3059 3430 2994 2346
3784 3722 3605 3856 3857 3454 3461 3752 4190 4509 4423 4150 4231 4005 4094 4048 3782 3769 4133 2087 2077 2715 3065 2951 2624 2041 1940 2157 2114 1715 1303 1880 1925 1641 1200 1660 1336 1256 1411 1230 1295 1632 1716 1510 1353 1840 2591 2856 2485 3530 3931 3997 3723 3979 3987 3789 3504 4133 4156 3935 3397 3319 3947 4507 4699 5036 5135 4551 4196 4105 4150 4190 4299 4338 4458 4452 4391 3941 3720 3615 3218 3110 3621 2843 2280
3747 3890 3522 3893 4132 4005 4067 3854 3962 4236 3852 3744 3896 3470 3703 3758 4508 4426 3675 3221 2326 2624 3058 2966 3075 3126 2060 2946 2075 2691 1500 1692 1010 1849 941 1136 1171 1363 1846 1486 1296 1772 1614 1703 1970 1848 1522 1527 3106 3480 4072 4140 3867 3599 3656 3598 3592 4448 4792 4346 4292 3700 3480 4006 4401 4419 4775 4172 3998 3851 3800 3948 4166 4445 4661 4777 4278 3732 3664 3589 3378 3077 3478 2963 2205
3660 3930 4004 3878 3880 3976 3929 3682 3528 3856 3950 3776 3764 3726 3558 3542 3966 4065 3619 3556 3954 2774 2450 3186 3177 4103 3217 2716 2398 1983 2119 2094 1822 1706 2300 1234 1241 1124 1313 1310 1368 1493 1823 1590 1576 1652 2034 1673 2268 2404 2771 2906 3575 3905 3657 3795 3917 4155 4682 4376 3622 3217 3454 3765 3837 3846 4581 4889 3883 3575 3611 3866 4010 4492 4470 4362 4155 3663 3601 3345 3384 3286 3476 2626 2242
3343 3603 3921 4255 4371 4363 4178 3899 3610 3634 3906 4020 3679 3139 2847 3246 4094 4264 3863 4256 4501 3815 3058 2363 3141 3130 2552 2502 2790 2786 2306 2029 1976 2010 1787 2168 1490 1156 1109 1302 1310 1237 1383 1490 1531 1685 1982 2297 1834 1959 2512 3325 3780 3719 3777 3449 3324 3374 3752 3690 2799 3608 3535 3268 2886 3022 3981 4057 3674 3245 3761 3924 4088 4314 4258 3841 3725 3449 3378 3307 3389 3558 2901 2422 2098
3422 3916 3803 3785 4167 4400 4414 4084 3999 3598 3832 3875 3601 3396 3196 3909 4510 4581 4790 4667 4289 3841 3626 2920 2750 2819 2792 2358 2402 2684 2989 2423 2075 1650 1992 1847 1623 1370 1254 1456 1373 1293 1504 1602 1656 1859 1959 2489 2048 2137 2746 3546 3920 3777 3504 3680 4065 4215 3886 2649 3710 3469 3218 2710 2425 2611 3091 3489 3832 3294 3952 4156 4218 4219 3934 3650 3326 3207 3391 3296 3473 3522 2599 2224 2002
3793 3483 3873 3792 3767 4285 4415 4049 3877 3784 3637 3574 3425 3285 3237 3461 4178 4475 4292 4458 4222 4044 4366 4176 2893 2608 3094 3056 2583 2327 2167 2287 2541 2610 2256 1591 1439 1417 1707 1817 1784 1588 1776 1723 1828 1927 1918 2212 2552 2297 3106 3657 3968 4064 3480 3943 4322 4521 3218 2999 3310 3340 2853 2390 2234 2558 2736 2856 3272 3665 4116 3991 3873 4156 4099 3396 3188 3266 3177 3323 3472 3445 2434 2072 1887
3500 3776 3992 3916 3809 4184 4054 3736 3536 3340 3494 3724 3655 3621 3700 3670 3623 3473 3958 4041 4324 3976 3683 3908 3583 3370 3069 3429 3729 3148 2539 2059 1812 1660 1825 1918 1656 1550 1518 1605 1707 1819 2011 1810 1994 1956 2108 2156 2117 2422 2900 3294 3643 4049 4057 4035 3885 3012 3493 2550 2592 2580 2392 2380 2249 2438 2086 2071 2801 3249 3408 3792 3874 3518 3822 3488 2997 2973 3009 3302 3439 3274 2305 1970 1768
3070 3433 3539 3386 3702 4042 3712 3621 3567 3634 3816 3814 3642 3250 2862 2784 2905 3981 4282 3878 3763 3912 3698 3842 3631 3932 3052 3587 3246 1909 2209 1936 2025 2191 1708 1648 1818 1584 1158 1467 1472 1651 1891 2104 2293 1995 2190 2186 2220 2461 3012 3064 3673 3666 3949 4079 3037 2831 3681 1570 1951 2117 2185 2470 2106 1734 1704 2143 1950 2292 2699 3328 3307 3390 3331 3246 3123 2815 2916 3256 3375 3172 2238 1790 1666
3418 3223 3102 2977 3716 4034 3994 3834 3850 3694 3608 3641 3455 3177 3052 3071 3246 3788 3784 4098 4032 3924 3464 3416 3088 3335 2901 2492 2560 1970 2084 1931 1820 2288 2258 2008 1650 1545 1710 2005 2083 1732 1810 2298 2084 1971 2094 2135 2313 2424 2693 3192 3342 4160 4237 4078 3501 2707 3766 1832 1622 1639 1860 2286 1965 2140 2221 2227 2053 1800 2097 2593 2811 2817 2675 2699 2697 2590 2752 3100 3363 3222 2426 1699 1596
3289 2942 2796 3284 3730 4266 4077 4000 3903 3871 4028 3968 3766 3878 3988 3382 3348 3187 3438 3547 3496 3507 3505 3056 3071 3087 2688 2585 2346 2080 2191 2012 2076 2529 2210 1909 2053 1877 1876 2034 2152 2011 2151 2112 2262 2211 2050 2331 2401 2488 2857 2922 2892 3874 3702 3088 3117 2877 3402 2587 1285 1516 1528 1810 1940 1772 2095 2251 2210 2101 2166 2104 2185 2273 2198 2237 2467 2243 2408 2766 3212 3154 2618 1620 1416
2642 3073 2832 2965 3423 3568 4047 3921 4141 4100 4137 4069 3901 4081 4268 3815 3583 3520 2953 3792 3812 3791 3624 3216 3214 3201 3047 2819 2397 2368 2870 2768 2353 1941 2295 2219 2060 1717 2302 2622 2164 2018 2491 2525 2654 2250 2304 2310 2414 2765 2851 3014 2936 3378 3624 2967 2699 2761 2571 3104 2214 1450 1489 1474 1602 1692 1928 2051 2086 2095 2039 1882 2046 2007 1987 2234 2439 2435 2427 2350 3135 3077 2969 1955 1394
2943 3152 3435 3554 3648 3854 4061 3791 3941 4128 4129 3972 3531 3980 4450 4125 4060 3891 3825 3616 3799 3733 3291 3068 2789 3045 3273 3314 3051 2445 2605 2678 2203 2041 2178 2006 1985 1868 2415 2643 2345 2322 2322 2526 2433 2356 1892 2597 2264 2600 2936 3427 3146 3574 3279 2835 2265 2558 2870 2967 2869 1973 1344 1398 1472 1678 1831 1888 1892 1866 1810 1787 1838 1930 1982 2251 2344 2480 2264 2444 2562 3066 2964 2115 1492
3400 3560 3423 3546 3749 3797 3834 3714 4023 3795 3746 3707 3766 3482 4146 3999 4074 3988 3880 3408 3688 3601 3355 3086 3006 3194 3174 3530 3358 2723 2753 2545 2404 2131 2203 2251 2082 2217 2596 2805 2760 2597 2573 2610 2300 2318 2023 2398 2693 2730 2884 3163 3248 2848 2559 2418 2215 2788 2814 2989 3450 3063 1540 1351 1548 1786 1876 1865 1832 1809 1843 1928 1957 1974 2001 2040 2202 2278 2299 2204 2534 2913 2953 2072 1449
3132 3326 3244 3846 3921 3759 3472 3351 3801 3957 3699 3850 3624 3696 4092 3823 3548 3970 3535 3360 3612 3622 3456 3157 2994 2644 2817 3123 3220 3104 2989 3358 2993 2456 2942 2907 2459 2525 2528 2485 3060 2812 2919 2552 3291 2158 2532 2258 2430 3227 3259 3412 3352 2795 2890 2980 2277 2622 2664 2979 2908 2548 1654 1505 1786 1853 1842 1816 1818 1867 1954 1964 1915 1848 1794 1828 1895 2010 2170 1999 2511 2700 2766 1968 1334
2971 2772 3134 3433 3838 3921 3716 3706 3478 3457 3456 3317 3617 3757 4105 3726 3596 3785 3115 3525 3512 3598 3491 3245 2930 2986 2979 3138 3145 2810 3047 2926 2761 2613 3207 3454 2942 2922 2871 2806 3025 3140 3202 2701 2917 2747 2422 2374 2451 2737 3489 3364 2265 2021 2139 2775 1988 2396 2830 3003 2432 2128 1793 1702 1845 1820 1821 1833 1852 1904 1951 1942 1847 1828 1726 1553 1588 1747 2024 1962 2365 2589 2470 1994 1298
3414 3515 3420 2896 3247 3431 3826 3513 3547 3705 3730 3504 3972 3987 4013 3645 3475 3242 3194 3801 3705 3616 3497 3356 2852 2965 3189 3028 2997 2902 3000 3052 3162 2548 2851 3339 3247 3167 3180 3174 3100 3029 3402 3544 2860 3545 2226 2264 2551 2706 2759 3021 2285 1846 1786 2325 2201 2246 2851 3170 2370 2035 2239 2287 1836 1848 1854 1846 1799 1813 1862 1894 1839 1753 1773 1686 1568 1442 1744 1972 2139 2448 2354 2048 1387
2723 3231 3050 2856 2870 2843 2675 2736 2746 2795 3058 3094 3259 3677 3869 3531 3272 3194 3132 3619 3750 3739 3295 2874 2766 2961 3200 3134 3114 3118 3088 3320 3381 3139 3283 3385 3430 3213 3312 3395 3554 3350 3528 3702 3461 2388 3115 2545 2495 2652 2610 2416 2809 2049 2149 1892 2060 2394 3203 3134 2839 2366 2582 2721 2158 1791 1788 1833 1748 1728 1752 1781 1745 1691 1608 1528 1588 1388 1452 1853 1838 2537 2425 2085 1566
2795 2922 3144 3177 3286 3117 2827 2846 2610 2860 3458 3348 3287 3616 3865 3933 3880 3851 3649 3739 3627 3439 3713 3327 3066 3186 3664 3588 3441 3365 3590 3298 3463 3313 3096 3317 3800 3271 3348 3550 3143 3640 3688 3689 3297 3060 3172 3159 2718 2564 2403 2564 1955 2164 2103 1552 1628 2295 2559 2657 2207 2154 2608 2799 2637 1833 1678 1726 1746 1743 1771 1771 1715 1637 1519 1456 1459 1390 1334 1656 1544 1789 2357 2016 1656
3120 2933 3162 2973 3068 3196 3025 3067 3205 3046 3505 3996 3291 3233 3411 3567 3493 3318 3467 3851 3847 3465 3554 3538 3292 3232 3385 3799 3617 3211 3531 3347 3172 2963 2957 3034 2852 2753 2936 2792 2947 3129 4055 3409 3380 3245 3017 3098 3419 3096 2546 2570 1912 2407 2239 2071 2094 2704 2786 2293 1245 1788 2403 2617 2674 2059 1678 1634 1621 1649 1679 1685 1670 1629 1707 1496 1352 1447 1036 1227 1357 1043 2169 1949 1619
2940 2873 2816 2789 3216 3488 3322 3338 3639 3303 3754 3366 3262 3474 3502 3569 3499 3173 3167 3460 3645 3528 3438 3476 3181 3038 3187 3439 3386 3490 3128 2779 2881 2773 2692 2576 2577 2476 2358 2428 2708 2625 3248 3431 3208 3261 3120 3162 3344 2578 2749 2955 2232 1811 2200 2181 2568 2956 3204 2027 1004 1382 2171 2374 2581 2406 1665 1620 1567 1517 1440 1424 1598 1642 1649 1640 1606 1415 1431 1085 1084 1077 1606 1939 1544
2415 2869 2886 2822 3211 3732 3529 3639 3784 3547 3506 3311 3076 3155 3587 3486 3402 3557 3519 3536 3409 3378 3456 3444 3243 3399 3364 3568 3469 3407 3583 3434 3367 3267 3188 3101 2920 3043 2803 3025 3431 3064 3160 3305 3466 3270 3100 3126 3486 2955 2860 2844 2143 1779 2092 2404 2374 2824 2414 1586 771 1579 2093 1826 2158 2443 1539 1445 1378 1324 1227 1168 1316 1358 1453 1531 1599 1586 1488 1439 1317 1184 1118 1641 1440
2217 2340 2968 3151 3310 3468 3027 3201 3467 3590 3396 3309 3471 3003 3067 3074 3355 3112 3213 3495 3528 3556 3444 3524 3389 3526 3489 3430 3466 3594 3831 3623 3348 3197 3041 3114 3070 2871 2813 3121 3119 2875 3067 3162 3446 3402 3345 3320 3292 3687 3606 3018 2438 2200 2473 2430 2506 2844 3328 1411 802 1316 2178 1509 1104 1778 1528 1048 1086 1120 1003 932 909 1054 1222 1385 1479 1588 1582 1502 1470 1429 1356 1360 1363
2307 2266 2367 2696 2893 3364 3356 3144 3114 3334 3463 3502 3530 3432 2831 2810 3077 3078 3087 3424 3366 3515 3516 3332 3380 3422 3375 3465 3495 3532 3603 3540 3126 3031 3324 3126 2949 2792 2643 2676 2822 2914 2899 3125 3380 3513 3404 3320 3427 3078 3682 2518 2142 2471 2506 2616 2354 2311 2150 1007 359 1345 1939 1642 1279 1455 1431 938 1167 1370 1065 625 431 500 723 980 1284 1457 1575 1632 1560 1454 1455 1459 1431
2134 2110 2124 2516 2919 2963 3257 3149 2828 3054 3274 3067 3419 3536 3239 2983 3104 3221 2841 3155 3327 3300 3415 3200 2998 3142 3196 3312 3446 3711 3598 3331 2926 2713 2718 2788 2721 2522 2638 2849 2784 2736 2595 2725 3096 3063 3164 3061 3016 3240 2800 2578 2107 2246 2705 2686 2774 2336 1460 642 233 773 1709 2068 1925 1710 1524 990 950 907 799 715 569 365 361 407 631 909 1129 1365 1522 1577 1563 1490 1434
1959 1914 1988 2037 2304 2516 2557 2740 2830 2869 3138 3038 3208 3277 3078 2936 2912 2980 3166 2888 2698 2820 3456 3606 3155 3054 3564 3272 3020 3126 3412 3484 3243 2939 2743 2528 2599 2603 2352 2506 2574 2612 2275 2257 2775 2849 2949 2769 2791 2646 2681 2569 2522 2520 2481 2645 2858 3042 1686 577 273 358 969 2276 2045 2213 2303 1255 279 652 986 809 858 606 512 389 505 615 673 758 943 1130 1410 1650 1577
1824 1787 1862 1859 1959 2087 2116 2353 2581 2540 2309 2548 2694 2952 3045 3237 3076 2806 2817 2963 2894 2946 3176 2718 2916 3570 3938 3503 3083 2896 2910 3232 3074 2688 2293 2292 2054 2178 2595 2821 3042 3079 2987 2743 3035 3202 3316 2909 3120 3324 2646 2402 2534 2771 2357 2515 2410 1913 1056 718 612 335 358 1638 2072 2090 1988 1452 189 224 921 1174 1103 1331 557 653 760 787 737 586 630 889 953 1038 1238
2512 2516 2416 2311 2058 1898 1865 2060 2085 2014 1854 2120 2363 2244 2064 2291 2677 2738 2631 2861 3046 3030 3288 3370 2795 3006 3223 3586 3657 3581 3469 3308 3293 3238 3144 3161 2917 2602 2805 3479 4115 3874 3509 3288 3033 2406 2038 3161 2754 2696 2401 2175 2536 2926 2238 2088 2249 2249 1426 907 370 281 444 891 1831 1473 1395 1577 540 231 523 1022 1131 1285 807 236 253 282 135 112 222 570 780 795 704
2617 2732 2595 2350 2054 1649 1495 1423 1522 1530 1640 1323 1257 1026 1048 1208 1951 2460 2906 3133 3343 3420 3295 3561 3567 2893 2919 3152 3135 3150 3643 3745 3607 3626 3709 3675 3983 4042 3656 3569 3560 3914 3216 2888 2802 2733 2934 2711 2416 2460 2027 2314 2738 2631 2215 1705 1867 1491 799 612 418 529 715 279 1216 1761 774 1683 1504 439 389 1159 1498 1288 820 157 0 0 0 0 0 154 188 134 132
3041 2328 2157 1974 1905 1648 1359 1428 1310 1388 1142 565 555 561 730 848 1057 1783 2596 3031 3042 3139 3326 3250 3159 2978 3005 2999 2933 2820 2772 3071 3021 3415 3642 3738 3900 3696 3698 3670 3659 3742 3657 2860 2518 2099 2766 2432 2354 2167 1954 2767 3034 2804 2080 1881 2075 1556 1066 451 789 552 678 950 1427 1648 664 869 1340 268 146 860 1058 824 617 45 0 0 0 0 0 0 0 0 0
1701 1609 1421 2050 2062 1882 1685 1966 1701 1149 769 697 621 808 766 876 932 1070 1469 2158 2514 2730 2959 3220 3320 3295 3406 3263 2974 2588 2730 3018 3385 2438 1543 1066 1554 2464 2486 2762 3289 3517 3463 3441 3132 2937 2236 2628 2071 1885 2527 2813 3057 2820 2274 2186 1545 961 946 871 1103 709 999 843 1351 938 273 343 1346 64 40 276 680 568 325 12 58 23 0 0 0 0 0 0 0
1460 1170 947 2139 2284 2344 1881 1851 1677 962 921 916 869 819 755 696 738 886 1293 1497 1623 1783 2044 2250 2261 2403 2614 2752 2770 2520 2412 2906 3394 1842 1324 1285 1606 1995 2732 2527 2857 3089 3762 3708 3476 3390 2963 2426 1866 2064 3059 3380 3081 3189 3002 2017 973 684 552 675 1150 1097 906 1193 947 635 190 128 184 50 49 137 296 303 236 6 165 14 0 0 0 0 0 0 0
1939 2175 2278 2360 2470 2251 1888 1503 1210 1090 1026 912 803 712 670 642 615 620 1142 1387 1559 1861 2080 2223 2369 2383 2545 2515 2780 2922 2939 3064 2237 1581 1451 1108 1108 1240 1558 1742 1840 2197 2742 2871 3621 3502 2883 2351 1586 2084 2701 3728 3464 3389 2704 1148 850 625 903 1302 1265 1161 717 1188 1129 808 401 98 170 147 21 67 191 152 108 3 0 0 0 0 0 0 0 0 0
1172 1124 1109 1400 1805 1941 1724 1498 1266 1052 999 898 830 770 767 801 806 757 699 899 1114 1262 1463 1938 2055 2162 2261 2348 2422 2614 2597 2478 1948 1246 1336 1315 1050 1149 1466 1570 1677 2034 1913 1640 1920 2174 2508 3017 3254 2988 2800 2532 2564 2175 1647 1071 878 1134 710 673 622 632 1355 1393 1302 660 258 76 88 101 5 18 109 63 14 0 0 0 0 0 0 0 0 0 0
1135 1066 1147 1292 1428 1163 1099 1081 1040 1002 974 941 952 952 958 886 720 702 752 806 904 1161 1146 1386 1482 1547 1650 1743 1788 1713 1763 1824 1688 1086 1055 1232 1260 1065 1223 1301 1444 1636 1150 866 1293 1628 1704 1935 2233 2474 2421 2102 1535 1303 1178 626 486 787 822 650 1024 889 783 604 488 404 172 48 25 94 13 5 12 102 28 0 0 0 0 0 0 0 0 0 0
1027 1049 1032 1069 1118 1150 1159 1155 1124 1093 1034 971 884 853 759 671 519 455 465 540 603 948 940 947 1057 1105 1182 1284 1474 1237 1315 1429 1028 945 829 786 836 1007 799 1034 1234 1573 1223 789 1094 1295 1430 1503 1542 1573 1329 1128 1212 1025 649 440 400 436 746 748 743 544 485 441 315 264 94 35 56 86 12 0 0 6 102 31 0 0 0 0 0 0 0 0 0
870 803 785 767 767 746 717 666 582 506 487 487 477 480 472 444 412 396 379 383 425 461 467 468 441 416 491 464 297 275 258 277 344 519 607 640 744 807 924 1344 1096 733 1270 859 919 1057 1001 987 1111 1108 1030 720 697 622 922 445 368 275 916 934 496 377 345 128 73 144 17 2 27 138 36 0 0 0 1 14 15 0 0 0 0 0 0 0 0
Wind_Speed
21 20 21 20 21 21 20 19 19 18 18 18 19 21 21 22 22 23 22 22 20 18 19 17 17 16 17 16 16 16 16 17 18 19 20 20 21 19 22 24 25 25 25 24 23 23 23 23 24 24 23 22 21 20 20 19 18 17 16 16 15 15 15 17 18 19 20 21 22 23 22 22 22 23 24 25 26 26 27 27 27 27 28 29 29
21 21 21 21 21 21 20 19 18 17 17 18 20 21 22 23 23 23 24 22 20 18 18 18 17 16 16 17 16 16 16 17 18 19 19 19 19 18 19 22 23 24 24 24 24 23 24 25 24 24 23 22 22 21 20 19 18 17 16 17 16 15 15 16 18 19 21 22 23 24 24 23 23 24 25 26 26 27 27 27 27 26 27 28 27
21 21 21 21 20 20 19 19 17 16 18 18 20 22 24 24 24 24 24 23 21 19 18 18 16 17 16 16 15 16 16 16 17 16 17 17 17 17 16 19 21 22 23 23 24 24 25 25 25 25 24 23 22 21 20 19 18 16 16 16 15 14 15 16 17 18 20 22 23 24 25 25 25 25 26 27 28 29 28 28 28 28 27 26 25
22 22 21 21 20 20 19 18 17 18 18 19 21 23 24 24 23 23 23 22 20 18 17 17 16 16 16 15 15 15 14 15 15 14 15 15 15 15 16 16 17 19 20 22 23 24 24 25 25 25 24 24 23 22 20 19 18 16 15 15 15 14 15 16 17 18 20 22 23 24 25 26 26 27 27 29 30 31 31 30 29 29 29 28 26
21 22 21 20 20 20 18 18 18 19 19 21 22 23 23 23 23 23 22 21 19 16 16 16 15 15 16 14 15 14 14 14 14 14 13 13 13 14 15 15 16 16 19 21 22 23 23 24 24 24 23 23 22 22 21 19 18 17 16 15 15 15 15 17 18 19 21 23 24 24 26 27 28 29 30 31 33 33 33 32 31 30 30 30 29
21 20 21 20 19 18 18 17 18 19 19 20 21 21 22 23 23 24 22 20 18 16 16 15 13 14 14 14 14 14 14 13 12 12 12 12 11 12 13 14 14 14 15 17 20 22 22 22 23 23 22 22 22 21 20 19 18 17 16 16 16 16 16 17 19 20 22 24 24 25 26 27 29 30 32 33 34 35 35 34 33 32 32 32 30
20 20 19 19 18 17 17 16 17 19 19 19 20 20 21 22 22 24 23 20 19 16 16 14 14 12 12 13 14 13 13 12 11 11 11 10 11 11 12 13 13 14 14 14 16 20 21 21 21 21 21 21 21 20 19 18 17 16 15 15 16 16 17 18 19 21 22 23 24 25 26 28 30 31 33 34 35 35 35 34 34 33 32 31 30
18 18 19 18 17 16 16 16 17 17 18 18 19 19 20 20 21 23 23 22 20 16 15 14 14 13 11 12 11 12 12 11 10 10 9 9 9 10 11 11 12 12 12 13 13 14 17 19 20 20 20 20 20 19 17 16 15 14 14 14 15 16 16 17 18 20 22 23 23 24 25 27 29 31 33 34 35 35 35 34 33 32 31 31 31
16 16 17 16 16 15 14 15 16 16 17 17 17 17 18 18 18 20 22 22 21 18 15 15 14 13 11 11 10 10 10 9 8 7 7 8 8 9 9 9 10 12 12 12 12 12 16 19 19 20 19 19 18 17 16 15 13 12 12 13 13 14 14 15 16 18 20 21 21 22 23 25 26 28 30 32 33 33 34 33 32 31 30 30 30
14 14 14 14 15 15 14 15 15 15 16 16 16 16 16 16 16 16 19 21 21 19 17 16 15 13 12 10 9 9 8 7 6 6 6 6 6 7 7 7 8 8 8 9 10 12 12 16 20 20 21 19 17 16 14 13 12 10 10 11 12 13 13 13 14 16 18 18 18 19 20 22 24 26 28 30 30 31 32 32 31 30 30 29 29
12 11 11 12 13 13 14 14 14 14 15 15 15 16 16 17 16 14 15 18 19 19 17 17 16 14 12 10 8 7 6 5 5 5 4 4 4 5 5 5 5 6 8 9 11 12 13 12 12 12 14 18 16 15 13 12 10 9 9 9 11 12 12 11 12 13 15 16 16 17 18 20 22 24 26 28 29 30 31 31 28 27 27 28 28
11 9 10 11 12 12 13 13 13 13 14 14 15 15 16 17 15 15 14 13 14 16 15 14 13 13 11 9 8 7 6 5 4 3 2 3 2 2 3 3 4 5 7 9 9 9 11 11 13 13 12 13 15 15 13 11 10 9 9 9 10 12 11 10 10 11 12 13 14 14 16 17 19 22 24 27 27 28 30 28 25 25 26 27 29
10 10 9 9 10 11 11 12 12 12 13 13 13 14 14 14 13 12 13 11 12 13 13 14 13 11 10 9 6 6 5 4 4 2 1 1 2 3 4 5 5 7 7 8 9 9 10 12 12 13 13 12 13 14 13 12 11 10 9 10 10 11 10 9 9 9 10 11 11 11 13 15 17 20 23 26 27 28 28 27 24 25 26 25 31
10 10 10 9 9 10 10 11 11 11 11 11 12 11 12 12 13 11 9 11 10 13 12 13 11 13 12 10 7 6 4 4 3 1 1 1 2 4 6 6 6 6 8 10 11 11 12 12 13 12 12 12 12 11 10 10 9 7 8 9 10 10 10 10 9 8 9 8 7 8 11 13 15 19 23 26 26 27 27 26 25 25 27 27 33
10 10 10 9 9 9 9 9 10 10 10 9 10 11 11 12 13 12 12 8 9 10 10 12 11 10 9 10 9 8 4 3 3 3 2 2 2 3 4 5 5 6 8 9 10 10 10 11 11 11 11 11 11 10 10 10 9 8 10 10 10 10 9 9 8 8 7 5 4 5 7 10 13 18 22 25 25 25 26 26 25 27 25 31 31
9 10 10 9 9 9 9 9 9 9 9 8 9 9 11 11 12 13 12 11 9 10 10 9 9 8 9 9 9 8 7 5 6 3 2 3 4 5 5 5 5 5 8 8 7 8 10 11 10 10 10 10 9 9 9 7 7 9 8 8 8 7 6 7 6 7 7 4 3 3 4 7 11 17 21 24 24 24 25 26 27 27 27 31 30
9 9 9 9 9 8 8 8 8 8 9 8 8 9 10 10 11 12 12 11 9 8 8 7 6 6 5 4 5 4 6 5 5 2 2 3 5 5 7 4 5 7 6 6 7 8 8 8 8 9 9 9 8 8 7 6 5 4 6 6 3 4 5 5 5 6 6 3 3 4 4 6 10 15 21 24 23 22 24 26 25 28 27 30 29
8 9 8 8 8 8 8 8 8 8 8 9 8 8 7 10 9 11 10 9 9 8 6 5 6 4 4 3 3 5 4 4 2 2 1 3 3 5 5 4 5 6 6 6 6 7 8 8 8 8 7 6 6 6 6 5 4 4 3 2 4 4 4 4 5 6 6 5 5 5 5 6 9 12 18 22 21 22 24 24 24 26 27 29 28
8 8 7 7 8 8 7 7 7 7 7 7 7 8 7 8 8 8 9 9 8 7 7 7 5 4 4 4 2 2 1 1 2 0 2 4 4 3 5 4 5 6 6 5 6 6 7 7 7 6 6 5 5 4 4 2 2 3 5 3 3 3 3 3 5 6 6 5 6 6 7 6 6 8 13 18 19 21 22 23 24 25 29 27 26
9 8 8 7 7 7 6 6 6 6 7 7 7 7 7 6 6 7 7 8 9 8 8 7 5 4 5 3 2 0 1 2 1 0 2 2 4 5 6 4 5 6 4 4 4 4 5 5 5 6 4 3 3 2 2 1 0 0 2 2 2 1 1 2 4 5 5 5 5 7 7 6 6 8 12 17 17 19 21 22 23 26 30 27 26
8 8 7 7 7 7 7 6 6 6 6 6 7 7 7 6 5 5 6 7 8 8 7 6 5 4 3 2 2 1 2 2 3 4 2 2 3 4 3 4 6 6 4 5 4 5 5 5 6 4 4 3 2 1 1 1 0 1 2 2 1 2 2 2 4 5 6 7 5 5 6 6 6 7 11 14 16 18 21 22 23 27 29 27 25
7 7 7 7 7 7 7 7 7 6 7 7 9 9 7 6 5 5 6 7 7 6 6 5 4 3 2 0 0 1 3 3 3 3 4 5 4 3 3 2 4 5 6 5 4 5 5 5 5 3 2 2 0 0 2 1 1 1 3 1 2 3 3 4 5 5 7 7 6 4 4 4 5 6 9 13 14 17 20 22 23 27 28 27 26
8 6 7 7 7 7 8 7 7 7 7 7 8 8 7 5 5 5 5 6 6 6 4 3 3 2 1 2 1 2 2 2 2 2 2 4 4 4 3 3 4 5 4 3 5 5 5 5 4 3 1 1 1 1 2 2 2 2 5 4 3 4 5 6 6 7 8 7 6 3 1 2 3 3 5 9 12 15 20 22 23 26 27 27 26
7 7 6 6 6 7 7 6 6 6 6 6 7 7 7 6 5 4 4 4 5 4 4 3 2 2 1 2 3 3 4 4 4 4 4 3 4 4 4 4 6 5 4 4 5 4 4 5 5 3 1 2 2 1 2 3 4 4 2 9 4 6 7 7 7 7 6 6 5 3 1 2 3 2 4 5 8 12 17 21 23 26 27 27 26
6 6 6 6 6 6 6 6 5 5 6 6 5 5 5 5 5 4 4 3 3 3 2 2 2 1 1 3 3 4 5 4 5 6 5 5 5 4 4 4 5 5 3 3 4 5 4 4 4 2 1 1 1 1 1 2 3 2 5 11 7 7 7 6 6 6 5 5 4 2 1 2 2 2 4 4 5 10 15 19 22 25 26 26 26
6 6 6 6 6 6 5 5 5 5 5 5 5 5 4 4 3 3 3 3 2 1 1 2 1 2 2 2 2 4 4 5 6 5 5 5 4 3 2 3 4 3 3 4 3 5 4 3 4 2 0 1 2 1 0 1 4 2 3 3 9 8 7 5 5 4 4 4 3 1 1 2 2 2 4 4 5 7 12 19 22 24 26 26 25
6 6 6 5 6 5 5 5 5 5 5 5 5 4 4 3 3 3 3 2 2 2 1 2 1 2 2 2 2 2 4 4 4 6 6 4 4 3 2 2 2 3 2 3 3 2 2 2 3 1 1 1 2 1 1 2 4 1 3 4 6 10 6 4 3 3 4 3 2 1 2 3 3 4 5 4 4 6 9 16 21 23 25 25 25
4 4 5 5 5 5 5 5 5 5 5 5 5 5 3 3 3 3 3 3 2 2 1 1 2 3 3 3 3 2 3 4 5 5 5 4 3 3 4 4 2 2 2 1 0 1 1 3 2 1 3 3 2 2 0 0 4 4 2 3 4 5 6 2 2 3 3 2 1 1 2 2 3 4 4 4 3 5 8 12 20 22 24 25 25
4 3 4 3 4 5 5 6 5 5 5 4 5 4 3 3 2 3 3 3 3 2 2 2 2 3 4 4 4 4 4 5 4 5 6 5 4 4 4 3 3 2 2 2 0 1 1 2 2 2 3 3 2 2 1 2 5 4 3 3 4 4 3 3 3 4 2 0 0 1 2 2 2 3 4 4 3 4 7 9 19 22 22 24 24
3 5 4 3 3 3 4 4 4 4 4 5 4 3 2 2 2 2 2 3 2 2 3 3 3 4 4 4 5 4 5 4 5 6 7 7 6 5 4 4 5 4 2 2 1 3 2 1 0 2 3 2 2 2 2 1 5 5 4 3 3 4 3 6 4 3 0 1 1 1 2 2 1 2 3 4 4 3 6 9 18 21 23 24 23
4 4 4 4 3 3 2 3 2 2 3 3 3 2 2 2 2 2 2 2 2 2 2 3 4 4 4 4 4 4 5 4 5 7 8 8 6 6 6 6 6 5 3 4 4 6 3 2 2 1 2 3 2 3 2 1 3 3 3 3 4 1 9 11 6 4 2 2 2 2 2 3 3 3 3 3 3 2 4 9 17 21 22 23 23
4 4 4 4 4 4 3 3 3 3 3 3 2 2 2 2 2 3 3 3 2 1 1 3 4 5 4 4 4 5 5 5 6 6 7 7 6 6 7 7 7 7 6 6 5 3 4 3 3 3 3 2 2 2 3 2 4 6 2 3 4 4 5 8 14 8 5 2 2 2 3 4 4 4 3 3 3 2 1 8 13 20 21 22 22
6 5 4 4 4 4 4 4 4 4 4 4 4 4 3 3 3 3 3 2 2 2 3 2 3 5 5 4 4 4 5 5 6 5 6 7 7 7 7 7 7 8 9 8 6 5 5 6 6 5 5 3 3 1 1 2 2 3 1 6 6 6 6 7 9 13 6 4 3 3 4 4 5 5 4 4 3 3 2 3 8 14 20 21 20
6 6 5 5 5 5 5 5 5 5 5 4 4 4 4 4 3 4 4 4 3 2 3 3 4 4 5 4 4 4 5 4 4 5 5 5 5 5 6 5 5 6 9 8 7 6 5 7 7 7 6 6 4 5 2 1 3 3 4 6 7 8 8 8 9 12 9 6 5 5 6 6 7 7 6 5 4 3 3 1 6 11 17 18 19
8 7 7 6 7 8 7 7 7 7 6 6 6 5 5 5 5 5 5 5 4 4 4 4 4 4 4 4 4 5 5 4 5 5 5 5 4 4 4 4 4 5 8 9 7 6 5 6 7 7 8 7 6 7 6 6 6 7 5 7 8 9 9 10 11 13 12 7 8 9 10 11 10 9 9 8 6 5 5 5 4 7 14 16 17
9 9 8 8 9 10 8 8 8 8 8 8 7 7 7 6 6 6 6 6 5 5 5 4 4 5 4 4 4 4 5 4 5 5 6 5 5 5 4 5 6 6 9 10 11 8 7 6 7 7 8 7 8 9 9 8 8 10 8 9 11 11 10 11 13 13 13 10 12 13 14 15 14 12 12 12 11 10 10 9 7 6 9 14 16
10 10 11 10 10 10 9 8 8 8 8 9 9 8 8 9 8 7 7 7 7 6 6 5 5 5 5 4 5 5 6 5 5 6 6 6 6 5 5 7 7 8 9 10 11 11 9 7 7 8 9 9 10 11 12 11 11 11 10 10 13 14 12 12 14 15 17 17 19 17 18 19 17 16 15 14 14 14 13 13 11 9 8 11 13
12 12 12 12 12 11 10 9 8 8 9 9 10 9 9 9 9 8 8 8 7 8 7 7 7 7 6 6 6 6 7 6 5 5 6 6 7 7 7 7 8 9 9 10 11 11 10 9 9 8 10 9 10 11 14 14 13 13 13 12 14 16 15 14 15 14 12 12 11 14 17 19 22 20 17 15 14 16 16 14 14 12 10 9 11
14 14 14 14 15 14 12 11 10 10 10 10 11 10 9 8 8 7 6 6 7 8 8 7 8 8 8 8 8 8 7 7 6 6 7 8 8 7 7 8 10 10 11 11 12 12 12 11 11 11 9 11 11 11 15 16 16 16 16 14 13 15 16 15 15 14 12 13 19 17 15 15 16 17 18 18 16 14 16 17 14 14 13 11 10
17 16 16 17 17 16 15 14 13 13 13 13 13 13 11 10 9 7 6 6 6 8 8 8 8 9 9 8 8 8 9 8 8 8 9 9 10 10 11 12 12 12 11 11 13 14 13 12 12 11 12 12 12 13 15 16 16 17 17 16 14 13 15 16 16 14 13 12 11 14 16 17 17 19 19 19 18 17 14 17 17 15 14 12 12
20 19 19 19 18 18 17 17 15 15 15 16 16 16 15 14 12 10 9 8 8 8 8 7 8 9 10 9 8 7 7 8 7 7 7 9 10 11 12 14 14 14 13 13 14 14 15 14 13 16 15 14 13 14 15 16 16 16 17 16 16 15 15 17 19 17 15 15 15 15 16 13 14 14 15 15 15 16 18 16 17 17 15 15 15
22 22 21 20 19 19 19 18 17 17 18 17 19 19 17 16 15 14 13 12 11 11 11 10 8 8 8 9 9 6 7 6 6 6 8 9 11 9 10 12 13 14 14 14 14 15 14 15 14 15 15 14 13 16 15 16 18 17 17 17 17 18 16 18 21 20 18 16 17 17 17 17 17 18 18 18 17 18 17 17 15 14 16 17 18
24 23 21 21 21 21 20 20 19 19 21 29 35 32 28 22 15 14 13 13 13 13 12 12 11 10 9 9 9 8 9 8 8 9 9 9 9 13 12 11 11 12 13 14 14 15 15 15 15 15 14 13 13 15 16 17 18 18 17 18 18 19 20 19 20 22 20 18 18 17 18 19 19 21 21 21 nan nan nan nan nan 19 20 21 21
29 27 27 28 28 27 26 25 24 25 28 29 32 30 29 27 24 18 15 14 15 15 14 14 13 13 11 11 10 10 9 8 8 9 11 12 13 13 13 14 15 15 14 14 14 14 15 15 16 16 15 16 16 16 15 17 18 19 19 18 19 19 19 21 23 23 23 19 19 18 19 20 21 22 23 nan nan nan nan nan nan nan nan nan nan
31 30 28 27 30 29 28 27 26 25 26 29 27 28 26 24 23 19 17 16 15 15 15 15 15 14 13 12 11 11 11 10 9 17 23 18 12 12 14 14 15 16 18 18 17 16 15 15 15 16 17 16 16 17 17 18 20 19 20 19 21 20 20 21 22 25 25 20 21 nan nan 21 21 23 25 nan nan nan nan nan nan nan nan nan nan
29 26 21 23 28 28 28 27 26 26 26 26 25 25 25 22 21 17 18 17 16 16 17 17 18 17 16 15 13 12 13 14 20 21 23 23 21 19 18 19 19 20 21 22 21 20 17 15 15 16 18 20 18 18 21 22 21 21 21 21 23 21 22 22 24 26 25 23 23 nan nan 24 23 24 26 nan 27 nan nan nan nan nan nan nan nan
28 28 27 27 28 28 27 25 24 24 26 27 25 24 23 22 20 17 20 18 17 17 18 19 18 18 18 18 17 16 17 18 23 22 23 24 26 24 22 21 21 21 22 22 22 23 23 20 17 17 19 22 21 22 23 23 22 23 24 24 25 24 26 27 27 26 27 nan 26 25 nan nan 26 27 27 nan nan nan nan nan nan nan nan nan nan
28 29 27 26 25 25 23 23 23 25 28 29 24 24 23 23 19 20 21 20 19 19 20 21 21 21 21 21 21 20 19 18 23 25 24 26 27 27 26 25 24 24 26 32 31 28 26 24 22 22 24 27 29 26 26 25 26 25 26 26 28 29 28 27 27 30 29 nan nan 29 nan nan 25 nan nan nan nan nan nan nan nan nan nan nan nan
32 31 30 29 28 25 23 22 22 27 29 30 28 28 27 25 22 23 21 21 19 19 19 20 20 21 23 23 23 22 20 19 24 27 26 26 28 30 31 30 27 27 29 35 35 33 32 33 34 33 30 30 27 27 26 26 25 26 26 27 28 29 30 29 30 29 32 nan nan nan nan nan nan 27 nan nan nan nan nan nan nan nan nan nan nan
34 31 31 32 34 32 31 32 31 33 32 33 34 33 33 32 28 28 28 25 24 22 21 23 25 25 25 24 23 24 23 24 29 30 31 30 28 31 33 32 30 29 30 33 34 36 38 36 37 37 34 28 25 26 27 28 27 26 28 26 29 29 30 30 30 31 nan nan nan nan nan nan nan nan 26 nan nan nan nan nan nan nan nan nan nan
40 37 35 37 37 37 36 36 37 36 34 35 37 37 37 37 34 33 33 32 31 32 30 29 29 29 31 31 40 38 35 34 37 39 39 35 29 28 30 33 35 34 36 40 35 33 33 38 40 37 33 31 29 27 30 29 28 26 27 26 30 30 31 30 nan 34 nan nan nan 31 nan nan nan nan nan nan nan nan nan nan nan nan nan nan nan
Wind_Direction
124 126 125 127 125 125 126 128 130 132 130 130 129 126 123 121 119 118 117 117 117 119 117 112 108 106 108 112 114 115 116 114 112 108 106 104 100 94 85 85 85 86 88 90 92 93 93 92 91 91 91 90 89 87 87 87 85 83 79 76 75 74 74 77 82 86 86 85 85 84 78 68 58 51 49 46 44 41 38 34 30 28 28 27 26
127 127 127 127 126 126 126 127 129 129 129 130 127 124 123 121 121 120 122 121 122 122 117 115 113 113 111 115 118 121 114 111 108 107 106 102 99 96 85 87 88 89 90 91 92 94 94 92 90 89 89 87 86 84 82 82 81 79 75 71 69 68 69 70 72 75 76 80 84 85 79 70 61 54 49 47 45 43 40 38 32 29 28 28 27
130 129 127 126 125 126 127 126 127 128 125 127 127 127 126 125 125 124 123 124 123 122 118 114 114 111 113 115 118 114 113 109 106 104 105 104 103 101 95 86 89 90 91 91 91 91 91 90 88 87 87 85 83 82 80 79 78 76 73 68 66 65 63 62 64 66 69 75 81 81 77 71 62 56 51 47 45 43 41 38 34 31 31 30 25
130 127 126 124 126 127 126 126 127 126 125 127 129 129 127 126 124 121 122 120 122 121 118 112 113 113 111 114 113 113 109 106 105 107 105 104 102 100 100 94 83 84 88 90 92 91 89 86 85 85 84 82 81 79 77 77 76 74 72 69 67 64 61 59 56 58 61 67 73 74 72 68 62 56 53 48 45 43 40 37 35 34 32 30 27
127 125 124 124 126 128 128 128 127 127 127 130 131 130 129 128 127 123 123 123 123 123 115 108 108 111 111 111 112 110 106 100 100 97 101 99 94 96 95 94 95 81 76 80 84 86 85 83 82 81 80 78 77 76 75 74 73 71 69 67 66 65 63 60 55 53 52 57 64 65 64 63 59 54 50 46 43 40 37 36 36 36 34 30 26
125 124 124 127 129 129 128 129 129 129 128 129 132 133 133 132 132 128 129 127 128 126 120 116 112 107 108 111 107 108 101 99 97 97 92 93 94 88 85 84 83 86 84 71 71 76 76 76 77 77 76 74 72 71 71 71 72 71 67 66 64 62 64 61 56 50 48 52 57 59 58 58 56 52 48 45 43 38 34 32 32 34 32 33 28
124 126 127 130 131 132 130 130 131 129 129 131 131 135 135 135 135 132 132 131 131 129 125 123 119 115 111 109 109 105 100 99 95 92 86 86 82 82 78 77 76 76 74 76 62 57 62 66 68 70 69 67 66 67 66 68 70 70 66 66 64 63 63 61 55 51 49 51 54 56 54 53 54 52 48 44 40 38 35 33 32 32 32 33 29
127 128 131 134 135 134 134 131 130 127 129 132 133 137 139 138 140 135 135 135 133 133 128 124 123 125 122 113 110 105 99 98 93 90 90 84 81 79 74 69 65 64 63 62 63 60 49 56 57 59 60 61 60 61 65 67 69 72 70 68 69 68 65 61 55 52 49 49 50 52 51 49 49 50 47 43 40 38 35 33 32 31 31 30 27
130 133 133 136 137 136 136 135 131 128 126 131 136 138 140 143 141 141 137 133 134 139 136 132 129 131 133 133 129 116 113 108 100 93 84 83 78 78 74 67 60 51 47 46 47 49 38 38 46 47 50 52 54 55 61 66 71 76 79 79 77 77 71 67 59 53 50 48 50 51 51 48 47 48 47 44 40 36 34 32 31 30 30 31 27
135 138 139 141 141 142 143 139 133 129 127 132 137 141 142 143 144 144 141 137 140 142 144 141 138 141 145 150 140 127 122 111 105 89 82 84 77 77 74 72 61 55 48 45 42 36 38 29 27 37 38 40 44 50 52 59 68 78 85 86 85 83 77 73 62 54 51 51 52 52 47 44 44 45 46 44 39 35 32 29 28 27 28 30 25
143 145 144 144 143 146 145 144 137 133 132 136 144 147 147 145 143 145 142 145 143 145 148 143 142 140 146 153 147 139 129 123 103 95 94 103 108 91 72 53 48 38 35 33 27 26 26 28 26 26 23 20 34 40 47 50 54 71 78 83 83 82 79 77 65 58 54 54 53 53 54 48 43 43 45 44 37 31 29 25 25 25 25 26 18
145 147 147 148 149 150 152 146 144 139 141 146 149 147 148 146 144 145 145 145 149 146 145 142 141 141 144 145 149 144 140 131 113 112 107 96 92 86 69 32 26 29 27 24 19 25 22 22 21 24 27 27 27 34 41 49 53 61 67 72 81 81 87 80 68 60 58 58 55 56 57 50 40 37 42 42 35 29 26 21 20 22 23 23 9
147 146 153 152 151 153 155 153 148 148 148 150 147 146 145 140 138 135 143 149 157 150 153 144 143 137 137 147 147 144 132 119 124 118 96 60 19 25 17 21 7 8 6 9 15 22 24 23 21 22 24 27 31 27 37 52 57 59 61 65 79 80 81 82 73 64 62 63 62 64 62 53 41 33 37 40 33 27 21 16 15 19 21 21 3
154 153 155 154 155 158 160 159 156 156 152 148 144 142 143 145 146 137 139 156 160 158 158 140 147 155 151 156 159 152 156 138 144 189 240 331 359 10 5 8 0 358 3 8 15 20 30 25 23 26 25 29 34 37 45 55 60 62 78 68 82 89 84 78 73 68 68 70 70 71 64 54 39 29 31 37 32 25 17 13 14 17 20 14 5
158 158 160 159 161 164 164 166 163 161 160 156 149 146 141 149 152 152 146 150 155 163 161 151 161 160 155 148 177 164 182 184 208 207 226 244 312 332 340 352 355 8 11 23 21 25 34 35 33 30 32 36 39 41 48 59 61 77 84 81 78 80 84 84 75 75 77 76 74 68 62 52 37 26 29 34 29 22 15 11 13 18 19 9 6
158 160 163 164 164 165 170 169 169 167 164 159 152 150 147 150 157 162 151 151 162 169 168 167 160 155 154 167 166 164 164 194 175 216 241 265 265 297 314 329 336 348 8 18 18 24 30 32 36 34 37 40 40 39 45 53 76 72 74 80 77 80 94 93 91 85 75 68 54 43 47 44 35 25 26 30 25 18 15 12 14 18 16 9 4
154 158 159 162 162 161 165 171 169 168 165 161 155 155 154 153 159 161 169 161 163 162 165 162 180 165 159 146 165 156 183 178 163 253 223 282 282 293 299 318 320 330 354 2 17 18 25 26 30 35 35 34 31 28 35 46 53 62 70 64 86 123 115 96 93 84 63 30 9 7 9 26 25 23 24 27 21 15 15 16 18 17 24 6 8
141 146 153 154 155 157 161 166 168 166 165 164 158 153 159 156 170 164 174 173 158 158 158 161 172 179 161 160 167 176 173 191 142 248 273 311 320 315 315 308 335 348 359 14 17 20 15 25 26 29 22 23 20 24 28 32 36 49 57 104 145 111 97 89 62 57 44 21 347 346 356 6 13 21 22 23 17 13 16 17 18 20 11 4 10
126 132 140 147 149 154 159 161 165 163 166 160 155 157 165 170 168 171 176 172 168 177 166 159 161 175 192 198 181 132 130 167 234 267 322 321 334 329 329 329 350 360 6 12 16 11 5 17 23 18 7 17 25 27 20 22 81 73 68 82 94 82 92 70 42 34 23 13 345 341 350 356 1 15 22 21 13 11 13 18 21 18 5 6 11
121 126 129 133 139 143 151 160 160 163 159 156 154 158 165 177 182 179 176 179 182 182 179 178 168 190 197 188 220 197 73 62 31 284 9 17 350 347 357 343 9 360 9 24 13 5 353 4 2 2 3 11 24 24 346 304 240 169 267 206 130 86 65 32 16 15 359 7 349 340 341 341 349 8 16 18 9 9 13 18 23 16 5 6 11
117 118 124 127 129 137 143 145 147 150 146 142 146 157 165 174 177 178 179 183 185 189 187 195 173 199 189 205 142 77 26 354 347 11 12 33 15 3 15 4 12 353 11 37 8 8 1 350 350 3 2 10 26 26 281 275 325 333 266 207 72 355 316 319 342 351 347 2 352 346 330 328 342 3 14 12 11 7 12 18 22 15 7 6 12
121 119 121 121 122 125 128 133 134 141 138 146 146 150 157 161 165 170 173 174 187 187 195 207 206 200 216 232 323 47 28 1 360 357 353 354 14 40 4 18 35 8 18 19 17 346 352 1 7 354 11 11 53 303 285 319 356 318 300 1 341 295 276 286 311 329 333 347 347 335 316 322 333 360 9 14 12 7 9 17 21 17 10 8 13
135 137 126 120 121 123 123 127 130 131 127 131 135 140 149 151 154 163 156 165 184 194 199 217 235 228 236 290 340 339 322 330 310 303 347 355 9 20 357 338 39 38 16 25 20 359 359 1 9 360 24 27 349 329 327 349 345 208 54 300 292 268 274 283 291 309 319 333 337 319 296 303 312 360 10 13 21 13 11 14 20 18 13 11 14
142 144 135 122 131 131 127 125 120 120 119 126 133 138 146 150 149 152 161 171 178 192 193 206 216 276 317 314 342 333 323 349 322 330 335 331 2 12 354 13 27 27 28 37 19 11 5 8 14 7 27 21 341 3 4 20 325 216 105 290 289 273 291 292 294 300 313 328 339 335 346 330 320 11 29 26 30 25 14 16 20 19 15 13 15
143 138 133 127 140 141 135 133 130 127 133 140 138 138 149 159 167 156 170 176 190 186 198 217 228 236 298 316 335 339 340 329 330 340 333 337 357 7 348 4 38 30 19 29 33 32 5 11 16 17 32 68 282 307 31 351 311 211 123 315 283 280 284 295 304 308 323 341 345 340 338 351 338 17 49 46 42 35 21 17 20 18 17 15 17
139 138 139 138 143 146 145 139 146 148 145 145 149 155 163 169 174 171 163 209 218 229 211 231 283 303 297 316 325 317 318 340 337 339 333 353 357 355 352 16 38 49 21 21 35 53 355 1 17 8 140 193 222 225 196 271 297 204 117 355 301 288 283 295 323 323 340 355 347 351 31 26 42 59 69 59 46 44 27 20 20 18 16 16 17
143 147 148 144 143 150 146 145 155 158 159 158 165 180 185 186 189 194 195 230 238 240 241 247 273 287 315 317 294 325 299 320 328 327 345 340 350 341 359 43 57 63 68 21 12 50 96 24 49 352 185 215 222 238 206 281 288 271 99 309 302 303 273 295 330 356 11 9 358 35 67 67 73 74 83 87 56 45 40 20 20 17 14 16 16
155 160 151 143 141 140 136 135 149 153 160 164 167 182 206 194 204 207 194 245 251 267 272 283 312 313 316 306 314 310 306 310 321 322 328 338 349 348 358 9 37 98 118 87 97 2 56 103 18 11 205 208 211 257 255 295 257 120 19 296 305 310 276 324 357 24 37 20 353 93 92 101 97 99 121 116 88 64 45 25 16 16 12 12 15
151 164 151 150 145 140 139 144 153 152 155 163 164 180 198 199 209 225 205 225 253 256 270 298 303 308 313 305 296 293 293 289 305 317 313 324 344 356 10 22 8 43 89 111 5 113 42 127 118 302 214 206 214 224 262 229 214 147 251 277 293 307 301 17 5 18 39 25 206 156 140 167 145 141 151 152 136 80 50 29 13 11 9 8 12
178 177 174 157 157 155 146 149 152 155 154 160 166 175 194 195 206 221 221 227 241 265 281 285 300 304 301 299 291 292 290 300 308 317 322 333 340 345 355 4 3 27 28 58 47 13 20 339 87 268 274 214 232 219 269 178 244 146 242 265 273 287 46 5 340 338 299 189 222 198 200 193 153 158 153 150 139 101 45 21 7 7 7 7 9
222 205 177 161 169 174 174 150 168 160 167 166 182 192 206 190 211 218 260 270 265 276 296 304 301 293 290 292 291 294 293 300 314 333 329 333 333 332 336 339 347 358 5 5 35 333 333 337 319 297 286 284 232 197 203 200 252 185 229 262 274 342 51 327 308 280 254 224 205 219 211 223 225 207 183 163 148 119 13 4 2 5 5 6 8
228 227 197 179 178 171 177 178 170 178 191 196 197 226 236 215 211 222 249 275 288 302 304 297 289 289 296 306 304 305 304 314 324 330 332 330 326 330 330 329 331 336 341 357 17 23 339 348 336 341 315 283 305 170 181 150 306 350 259 291 283 21 348 326 305 260 262 235 222 209 207 219 227 223 204 179 176 147 5 353 356 360 2 4 6
231 232 226 213 209 201 188 196 198 207 208 202 212 221 234 238 239 236 231 262 280 288 289 279 285 297 302 307 314 319 317 333 334 343 350 345 341 342 336 334 339 337 343 352 8 15 354 343 345 335 309 305 294 280 157 179 220 251 322 288 299 303 319 319 315 280 257 260 249 230 222 226 229 230 218 204 198 180 201 342 343 356 359 4 3
237 233 232 228 235 236 226 228 232 228 226 225 212 226 235 241 239 253 268 282 285 279 266 270 281 291 296 305 308 315 321 338 344 3 0 360 6 6 350 347 344 342 339 351 357 6 10 348 346 333 326 320 321 319 315 298 257 288 265 278 292 300 308 315 312 295 266 272 272 268 257 249 244 243 237 226 219 225 245 275 335 350 360 2 359
244 239 236 235 242 245 242 241 246 244 249 238 235 238 241 247 244 236 239 253 260 259 269 275 278 282 293 299 303 301 307 327 337 347 353 2 3 11 16 355 357 351 342 347 351 1 3 347 336 340 325 322 323 320 326 317 315 310 299 285 289 295 305 304 304 303 286 286 287 284 275 266 260 256 253 250 246 251 266 276 287 340 357 355 354
246 248 239 234 242 247 245 248 251 250 254 254 251 251 254 254 251 248 247 256 259 261 261 258 259 271 279 285 292 291 295 314 327 330 331 339 344 343 353 342 343 346 337 338 343 344 340 340 328 325 319 323 321 319 316 315 308 301 296 297 297 292 296 301 301 300 299 304 298 291 282 276 269 263 262 259 256 254 255 260 269 297 338 346 347
247 246 247 243 243 248 246 248 251 253 254 257 260 256 257 257 257 251 249 253 260 267 267 265 264 272 279 286 286 292 298 308 316 323 323 333 330 328 327 323 327 329 327 332 334 335 335 340 333 326 324 326 320 316 307 299 298 303 301 291 293 290 293 292 296 303 316 321 309 299 291 283 275 270 266 263 262 258 256 257 261 268 299 326 337
250 250 249 247 247 251 250 246 247 250 254 259 261 256 251 254 257 255 256 257 258 266 270 273 276 278 279 277 279 285 294 299 300 300 306 316 321 325 328 322 320 319 325 328 327 328 332 333 332 333 329 319 311 308 301 300 299 295 295 292 294 290 291 289 289 294 294 292 291 306 309 297 288 278 267 265 264 263 259 259 259 265 273 290 309
256 255 256 255 254 249 250 250 249 255 259 259 261 260 254 254 257 257 255 262 264 265 268 272 274 276 276 274 274 280 286 292 294 296 297 304 306 311 311 314 315 319 322 321 319 321 323 325 327 330 328 319 313 306 300 300 304 301 295 293 290 291 290 291 288 286 288 296 305 300 289 283 279 279 281 271 262 262 269 258 257 261 269 279 289
256 256 255 256 257 256 251 249 248 253 261 262 265 265 263 261 261 262 262 253 249 253 261 266 270 271 273 269 269 276 283 290 297 296 298 300 300 304 303 302 302 306 310 309 309 310 313 318 321 321 319 312 311 309 305 307 307 305 298 297 295 294 293 296 289 285 283 284 284 292 315 318 309 305 292 283 275 266 255 273 260 256 260 267 280
252 254 255 253 251 252 252 253 250 250 252 257 260 264 266 267 266 260 258 252 249 248 249 247 260 270 274 273 272 271 274 290 302 302 298 289 293 298 301 301 301 299 298 297 298 301 304 308 309 306 309 310 308 304 303 303 300 294 296 297 299 302 299 302 298 291 289 290 287 287 288 282 282 278 275 271 266 267 266 258 270 263 257 261 261
252 251 253 253 251 254 257 258 258 254 251 255 256 259 256 254 255 256 257 255 249 249 251 251 250 260 266 270 273 295 299 309 313 314 316 323 326 317 297 296 298 298 297 296 293 294 297 298 303 303 303 305 303 301 297 297 297 300 300 298 297 295 297 298 298 291 287 290 291 289 289 290 288 285 280 273 275 272 274 271 267 267 262 259 258
252 252 251 250 249 251 254 255 256 256 253 246 237 240 240 240 246 253 257 259 260 257 254 252 249 245 245 248 249 269 289 296 301 319 322 323 323 327 330 324 311 299 294 295 295 294 294 295 295 296 296 296 294 291 294 292 293 292 291 293 294 295 296 296 297 296 286 287 290 289 286 286 289 288 284 280 nan nan nan nan nan 262 259 258 257
255 255 255 253 250 248 249 250 251 250 253 246 247 247 246 243 241 245 250 253 254 255 254 251 246 239 232 233 238 247 262 274 272 291 309 310 308 308 312 314 316 322 320 306 293 291 292 294 295 295 292 292 290 292 289 288 288 290 290 290 293 294 295 298 297 295 289 288 290 290 289 288 288 288 286 nan nan nan nan nan nan nan nan nan nan
247 243 238 246 252 251 250 251 253 254 255 246 249 253 254 253 248 244 250 248 245 243 241 242 241 239 237 235 232 240 252 272 277 263 258 260 262 284 301 309 315 318 321 327 325 311 292 291 293 295 297 291 291 290 288 282 283 284 285 286 288 290 291 293 294 293 291 290 296 nan nan 289 292 290 289 nan nan nan nan nan nan nan nan nan nan
250 252 253 253 257 256 253 252 252 252 251 243 243 247 250 251 249 249 254 249 246 242 239 237 238 240 244 245 246 248 251 254 264 275 288 290 286 280 286 295 298 304 313 319 322 322 315 300 298 297 292 293 290 285 285 283 282 279 277 275 279 281 285 286 286 288 286 286 288 nan nan 292 291 291 289 nan 286 nan nan nan nan nan nan nan nan
245 242 238 240 247 251 252 255 257 256 254 241 243 243 244 245 245 251 254 250 249 247 246 245 243 246 249 252 254 258 259 267 276 280 285 291 289 287 286 286 288 288 290 296 302 303 304 304 304 301 293 289 288 287 285 281 278 274 272 271 272 274 276 281 285 286 285 nan 286 292 nan nan 293 293 290 nan nan nan nan nan nan nan nan nan nan
251 248 244 242 246 248 249 250 253 255 254 244 243 245 244 243 243 255 254 253 251 249 247 247 247 250 253 255 256 260 264 270 282 293 292 290 290 293 293 293 289 287 286 280 274 273 277 281 284 280 278 274 272 274 273 274 277 275 274 276 277 278 281 281 280 281 278 nan nan 286 nan nan 288 nan nan nan nan nan nan nan nan nan nan nan nan
246 245 245 244 244 242 240 243 248 255 254 246 244 243 243 242 251 256 256 256 252 249 248 249 252 254 258 261 262 264 269 272 279 292 296 294 290 294 294 295 292 288 287 282 283 279 276 274 268 266 267 270 271 276 280 277 276 273 277 277 278 280 278 277 276 278 277 nan nan nan nan nan nan 293 nan nan nan nan nan nan nan nan nan nan nan
243 239 238 243 245 245 247 249 252 257 255 251 247 246 246 245 251 258 258 256 253 250 248 250 255 259 260 260 264 267 266 266 262 277 275 278 287 290 292 292 289 285 280 276 276 278 277 272 267 264 264 266 275 281 284 286 289 284 284 279 278 278 277 276 276 275 nan nan nan nan nan nan nan nan 293 nan nan nan nan nan nan nan nan nan nan
242 242 245 249 251 251 251 253 254 258 258 254 248 246 247 246 251 258 256 257 256 253 253 253 255 258 261 262 262 266 268 268 267 270 273 279 285 289 294 292 287 285 274 268 264 262 263 269 268 266 270 271 270 276 284 289 292 291 282 278 278 280 278 275 nan 279 nan nan nan 279 nan nan nan nan nan nan nan nan nan nan nan nan nan nan nan